CHC801X ZSPD-ZSPD

Flight info

Callsign CHC801X
Flight time N/A
Altitude 2000
Route PD501 DCT PD504 DCT PD203 DCT SS402 DCT PD408 DCT PD207 DCT PD511
Aircraft EC30/L-SFG/C

Departure

Time 2026-04-30 13:49
Airport Shanghai Pudong International Airport (ZSPD)

Arrival

Time N/A
Airport Shanghai Pudong International Airport (ZSPD)
Time Latitude Longitude Altitude Speed Heading
2026-04-30 13:41 31.12690 121.78999 20 ft 0 kts 342°
2026-04-30 13:47 31.12695 121.79002 24 ft 3 kts 17°
2026-04-30 13:47 31.12737 121.79033 36 ft 12 kts
2026-04-30 13:47 31.12767 121.79042 20 ft 0 kts 345°
2026-04-30 13:48 31.12802 121.79022 192 ft 24 kts 346°
2026-04-30 13:49 31.12973 121.79277 543 ft 72 kts 56°
2026-04-30 13:49 31.13245 121.79969 744 ft 102 kts 65°
2026-04-30 13:49 31.13557 121.80705 1010 ft 105 kts 60°
2026-04-30 13:49 31.13919 121.81431 1277 ft 109 kts 56°
2026-04-30 13:50 31.14339 121.82207 1440 ft 116 kts 56°
2026-04-30 13:50 31.14729 121.84106 1557 ft 140 kts 86°
2026-04-30 13:50 31.14919 121.85217 1311 ft 135 kts 60°
2026-04-30 13:51 31.15593 121.85854 1301 ft 121 kts 20°
2026-04-30 13:51 31.16405 121.85933 1352 ft 116 kts
2026-04-30 13:51 31.17176 121.85613 1330 ft 118 kts 333°
2026-04-30 13:51 31.17845 121.85087 1354 ft 116 kts 332°
2026-04-30 13:52 31.18508 121.84536 1360 ft 117 kts 330°
2026-04-30 13:52 31.19158 121.83993 1362 ft 117 kts 329°
2026-04-30 13:52 31.19809 121.83446 1363 ft 118 kts 331°
2026-04-30 13:52 31.20482 121.82886 1365 ft 118 kts 331°
2026-04-30 13:53 31.21165 121.82317 1362 ft 119 kts 330°
2026-04-30 13:53 31.21838 121.81762 1369 ft 119 kts 331°
2026-04-30 13:53 31.22522 121.81200 1359 ft 117 kts 330°
2026-04-30 13:53 31.23198 121.80643 1358 ft 118 kts 330°
2026-04-30 13:54 31.23875 121.80080 1365 ft 118 kts 331°
2026-04-30 13:54 31.24551 121.79524 1364 ft 119 kts 330°
2026-04-30 13:54 31.25228 121.78960 1362 ft 120 kts 329°
2026-04-30 13:54 31.25911 121.78391 1367 ft 119 kts 330°
2026-04-30 13:55 31.26588 121.77827 1360 ft 119 kts 330°
2026-04-30 13:55 31.27137 121.77366 1361 ft 120 kts 330°
2026-04-30 13:55 31.28514 121.76225 1366 ft 120 kts 329°
2026-04-30 13:56 31.29193 121.75665 1360 ft 119 kts 331°
2026-04-30 13:56 31.29858 121.75115 1362 ft 119 kts 330°
2026-04-30 13:56 31.30509 121.74576 1359 ft 118 kts 330°
2026-04-30 13:56 31.31201 121.74004 1361 ft 118 kts 329°
2026-04-30 13:57 31.31870 121.73447 1360 ft 118 kts 329°
2026-04-30 13:57 31.32550 121.72879 1360 ft 118 kts 329°
2026-04-30 13:57 31.33214 121.72318 1360 ft 118 kts 329°
2026-04-30 13:57 31.33872 121.71765 1353 ft 118 kts 328°
2026-04-30 13:58 31.34408 121.71036 1328 ft 122 kts 307°
2026-04-30 13:58 31.34465 121.69149 1352 ft 129 kts 269°
2026-04-30 13:58 31.34381 121.68626 1354 ft 129 kts 269°
2026-04-30 13:59 31.34245 121.67814 1353 ft 130 kts 267°
2026-04-30 13:59 31.34075 121.66818 1355 ft 129 kts 268°
2026-04-30 13:59 31.33908 121.65848 1358 ft 130 kts 268°
2026-04-30 13:59 31.33748 121.64896 1352 ft 129 kts 267°
2026-04-30 14:00 31.33602 121.64020 1357 ft 129 kts 268°
2026-04-30 14:00 31.33239 121.61828 1362 ft 130 kts 268°
2026-04-30 14:00 31.33149 121.61398 1343 ft 132 kts 262°
2026-04-30 14:01 31.32929 121.60857 1320 ft 135 kts 248°
2026-04-30 14:01 31.32354 121.60175 1319 ft 138 kts 225°
2026-04-30 14:01 31.31038 121.59140 1354 ft 138 kts 220°
2026-04-30 14:02 31.30163 121.58489 1359 ft 139 kts 219°
2026-04-30 14:02 31.29589 121.58061 1358 ft 140 kts 220°
2026-04-30 14:02 31.29069 121.57671 1353 ft 139 kts 221°
2026-04-30 14:02 31.28757 121.57435 1358 ft 138 kts 220°
2026-04-30 14:03 31.28023 121.56879 1356 ft 139 kts 220°
2026-04-30 14:03 31.27173 121.56234 1353 ft 139 kts 221°
2026-04-30 14:03 31.26514 121.55733 1359 ft 139 kts 220°
2026-04-30 14:03 31.25666 121.55088 1361 ft 138 kts 221°
2026-04-30 14:04 31.25073 121.54635 1357 ft 138 kts 220°
2026-04-30 14:04 31.24195 121.53968 1359 ft 138 kts 221°
2026-04-30 14:04 31.22436 121.52708 1345 ft 143 kts 212°
2026-04-30 14:05 31.21509 121.52309 1348 ft 140 kts 206°
2026-04-30 14:05 31.20926 121.52087 1355 ft 140 kts 204°
2026-04-30 14:05 31.20550 121.51948 1357 ft 140 kts 204°
2026-04-30 14:05 31.19667 121.51627 1358 ft 142 kts 203°
2026-04-30 14:06 31.19056 121.51405 1355 ft 141 kts 203°